Colby, KS

11:16 PM CDT on July 22, 2017 (GMT -0500)
Shaltz

Weather History for KCBK - May, 2012

Change the Weather History Date:

Wednesday, May 23, 2012

  Actual Average (KGLD) Record (KGLD)
Temperature  
Mean Temperature 68 °F -  
Max Temperature 80 °F 74 °F 96 °F (2000)
Min Temperature 55 °F 48 °F 36 °F (1930)
Cooling Degree Days 4    
Growing Degree Days 18 (Base 50)    
Moisture  
Dew Point 62 °F    
Average Humidity 72    
Maximum Humidity 100    
Minimum Humidity 51    
Precipitation  
Precipitation 0.00 in - - ()
Sea Level Pressure  
Sea Level Pressure 29.50 in    
Wind  
Wind Speed 17 mph ()    
Max Wind Speed 28 mph    
Max Gust Speed 38 mph    
Visibility 10.0 miles    
Events Rain    
Averages and records for this station are not official NWS values.
T = Trace of Precipitation, MM = Missing Value Source: Averaged Metar Reports

Daily Weather History Graph

Daily Weather History Graph

Search for Another Location

Airport or City:

Trip Planner

Search our weather history database for the weather conditions in past years. The results will help you decide how hot, cold, wet, or windy it might be!

Date:

Astronomy

May. 23, 2012 Rise Set
Actual Time 6:23 AM CDT 8:58 PM CDT
Civil Twilight 5:52 AM CDT 9:29 PM CDT
Nautical Twilight 5:13 AM CDT 10:08 PM CDT
Astronomical Twilight 4:30 AM CDT 10:52 PM CDT
Moon 8:28 AM CDT 11:21 PM CDT
Length of Visible Light 15h 37m
Length of Day
14h 35m
Waxing Crescent, 7% of the Moon is Illuminated
May 23
Waxing Crescent
May 28
First Quarter
Jun 4
Full
Jun 11
Last Quarter
Jun 19
New

Hourly Weather History & Observations

Time (CDT) Temp. Heat Index Dew Point Humidity Pressure Visibility Wind Dir Wind Speed Gust Speed Precip Events Conditions
12:15 AM 73.4 °F - 68.0 °F 83% 29.57 in 10.0 mi SSE 21.9 mph 29.9 mph N/A   Clear
12:35 AM 73.4 °F - 66.2 °F 78% 29.57 in 10.0 mi SSE 19.6 mph 31.1 mph N/A   Clear
12:55 AM 73.4 °F - 66.2 °F 78% 29.56 in 10.0 mi SSE 23.0 mph 28.8 mph N/A   Clear
1:15 AM 73.4 °F - 64.4 °F 73% 29.54 in 10.0 mi SSE 20.7 mph 25.3 mph N/A   Clear
1:35 AM 73.4 °F - 64.4 °F 73% 29.53 in 10.0 mi South 20.7 mph 29.9 mph N/A   Clear
1:55 AM 73.4 °F - 64.4 °F 73% 29.52 in 10.0 mi SSE 23.0 mph 27.6 mph N/A   Clear
2:15 AM 71.6 °F - 64.4 °F 78% 29.51 in 10.0 mi SSE 19.6 mph 26.5 mph N/A   Clear
2:35 AM 71.6 °F - 64.4 °F 78% 29.50 in 10.0 mi South 20.7 mph 31.1 mph N/A   Clear
2:55 AM 71.6 °F - 62.6 °F 73% 29.49 in 10.0 mi South 21.9 mph 28.8 mph N/A   Clear
3:15 AM 71.6 °F - 62.6 °F 73% 29.48 in 10.0 mi South 20.7 mph 29.9 mph N/A   Clear
3:35 AM 69.8 °F - 62.6 °F 78% 29.47 in 10.0 mi South 18.4 mph 29.9 mph N/A   Clear
3:55 AM 69.8 °F - 62.6 °F 78% 29.46 in 10.0 mi South 20.7 mph 26.5 mph N/A   Clear
4:15 AM 69.8 °F - 62.6 °F 78% 29.46 in 10.0 mi South 16.1 mph 27.6 mph N/A   Clear
4:35 AM 68.0 °F - 62.6 °F 83% 29.46 in 10.0 mi South 16.1 mph 24.2 mph N/A   Clear
4:55 AM 68.0 °F - 62.6 °F 83% 29.45 in 10.0 mi South 15.0 mph 20.7 mph N/A   Clear
5:15 AM 68.0 °F - 62.6 °F 83% 29.44 in 10.0 mi South 15.0 mph 19.6 mph N/A   Clear
5:35 AM 66.2 °F - 62.6 °F 88% 29.43 in 10.0 mi South 12.7 mph - N/A   Clear
5:55 AM 64.4 °F - 60.8 °F 88% 29.43 in 10.0 mi SSW 11.5 mph - N/A   Clear
6:15 AM 64.4 °F - 60.8 °F 88% 29.43 in 10.0 mi SSW 10.4 mph 17.3 mph N/A   Clear
6:35 AM 62.6 °F - 60.8 °F 94% 29.43 in 10.0 mi SSW 10.4 mph - N/A   Clear
6:55 AM 62.6 °F - 60.8 °F 94% 29.44 in 10.0 mi SW 10.4 mph - N/A   Clear
7:35 AM 60.8 °F - 59.0 °F 94% 29.45 in 10.0 mi WSW 8.1 mph - N/A   Clear
7:55 AM 60.8 °F - 57.2 °F 88% 29.45 in 10.0 mi WSW 6.9 mph - N/A   Clear
8:15 AM 62.6 °F - 57.2 °F 82% 29.45 in 10.0 mi West 4.6 mph - N/A   Clear
8:35 AM 64.4 °F - 59.0 °F 83% 29.46 in 10.0 mi WNW 8.1 mph - N/A   Clear
8:55 AM 68.0 °F - 60.8 °F 78% 29.46 in 10.0 mi NW 9.2 mph 17.3 mph N/A   Clear
9:15 AM 69.8 °F - 62.6 °F 78% 29.47 in 10.0 mi NNW 16.1 mph - N/A   Clear
9:55 AM 71.6 °F - 64.4 °F 78% 29.50 in 10.0 mi NW 19.6 mph 24.2 mph N/A   Clear
10:15 AM 73.4 °F - 64.4 °F 73% 29.50 in 10.0 mi NW 24.2 mph 29.9 mph N/A   Clear
10:35 AM 73.4 °F - 66.2 °F 78% 29.51 in 10.0 mi North 23.0 mph 28.8 mph N/A   Clear
10:55 AM 71.6 °F - 66.2 °F 83% 29.51 in 10.0 mi NNW 24.2 mph 31.1 mph N/A   Clear
11:15 AM 73.4 °F - 64.4 °F 73% 29.52 in 10.0 mi NNW 24.2 mph 32.2 mph N/A   Clear
11:35 AM 75.2 °F - 66.2 °F 73% 29.53 in 10.0 mi NNW 19.6 mph 29.9 mph N/A   Clear
11:55 AM 77.0 °F - 66.2 °F 69% 29.53 in 10.0 mi North 27.6 mph 36.8 mph N/A   Clear
12:15 PM 77.0 °F - 66.2 °F 69% 29.52 in 10.0 mi North 23.0 mph 32.2 mph N/A   Clear
12:35 PM 78.8 °F - 68.0 °F 69% 29.53 in 10.0 mi North 26.5 mph 33.4 mph N/A   Clear
12:55 PM 78.8 °F - 68.0 °F 69% 29.53 in 10.0 mi North 23.0 mph 33.4 mph N/A   Clear
1:15 PM 78.8 °F - 64.4 °F 61% 29.53 in 10.0 mi North 26.5 mph 34.5 mph N/A   Clear
1:35 PM 78.8 °F - 62.6 °F 57% 29.54 in 10.0 mi North 26.5 mph 38.0 mph N/A   Clear
1:55 PM 78.8 °F - 62.6 °F 57% 29.54 in 10.0 mi North 24.2 mph 33.4 mph N/A   Clear
2:15 PM 80.6 °F 82.3 °F 64.4 °F 58% 29.53 in 10.0 mi North 24.2 mph 33.4 mph N/A   Clear
2:35 PM 80.6 °F 81.8 °F 62.6 °F 54% 29.52 in 10.0 mi North 25.3 mph 33.4 mph N/A   Clear
2:55 PM 80.6 °F 81.8 °F 62.6 °F 54% 29.51 in 10.0 mi NNE 25.3 mph 35.7 mph N/A   Clear
3:15 PM 80.6 °F 81.8 °F 62.6 °F 54% 29.52 in 10.0 mi North 19.6 mph 31.1 mph N/A   Clear
3:35 PM 80.6 °F 81.8 °F 62.6 °F 54% 29.52 in 10.0 mi North 20.7 mph 28.8 mph N/A   Clear
3:55 PM 80.6 °F 81.8 °F 62.6 °F 54% 29.52 in 10.0 mi North 19.6 mph 26.5 mph N/A   Clear
4:15 PM 80.6 °F 81.8 °F 62.6 °F 54% 29.52 in 10.0 mi NNE 19.6 mph 26.5 mph N/A   Clear
4:35 PM 80.6 °F 81.8 °F 62.6 °F 54% 29.51 in 10.0 mi North 15.0 mph 20.7 mph N/A   Clear
4:55 PM 80.6 °F 81.8 °F 62.6 °F 54% 29.51 in 10.0 mi NNE 19.6 mph 25.3 mph N/A   Clear
5:15 PM 80.6 °F 81.8 °F 62.6 °F 54% 29.51 in 10.0 mi NNE 18.4 mph 26.5 mph N/A   Clear
5:35 PM 80.6 °F 81.8 °F 62.6 °F 54% 29.52 in 10.0 mi NNE 16.1 mph 19.6 mph N/A   Clear
5:55 PM 80.6 °F 81.5 °F 60.8 °F 51% 29.52 in 10.0 mi North 16.1 mph 21.9 mph N/A   Clear
6:15 PM 80.6 °F 81.8 °F 62.6 °F 54% 29.50 in 10.0 mi NNE 16.1 mph 21.9 mph N/A   Clear
6:35 PM 78.8 °F - 60.8 °F 54% 29.50 in 10.0 mi NE 15.0 mph 23.0 mph N/A   Clear
6:55 PM 78.8 °F - 60.8 °F 54% 29.48 in 10.0 mi NE 18.4 mph 24.2 mph N/A   Clear
7:15 PM 77.0 °F - 60.8 °F 57% 29.48 in 10.0 mi NE 15.0 mph 28.8 mph N/A   Clear
7:35 PM 75.2 °F - 60.8 °F 61% 29.49 in 10.0 mi NNE 15.0 mph 21.9 mph N/A   Clear
7:55 PM 73.4 °F - 60.8 °F 65% 29.49 in 10.0 mi NNE 17.3 mph 21.9 mph N/A   Clear
8:15 PM 71.6 °F - 60.8 °F 69% 29.49 in 10.0 mi NNE 17.3 mph 27.6 mph N/A   Clear
8:35 PM 71.6 °F - 60.8 °F 69% 29.50 in 10.0 mi NNE 19.6 mph 25.3 mph N/A   Clear
8:55 PM 69.8 °F - 59.0 °F 68% 29.49 in 10.0 mi NNE 20.7 mph 25.3 mph N/A   Clear
9:15 PM 68.0 °F - 59.0 °F 73% 29.50 in 10.0 mi NNE 17.3 mph 29.9 mph N/A   Clear
9:35 PM 66.2 °F - 57.2 °F 73% 29.52 in 10.0 mi NNE 19.6 mph 27.6 mph N/A   Clear
9:55 PM 66.2 °F - 57.2 °F 73% 29.53 in 10.0 mi NNE 19.6 mph 27.6 mph N/A   Clear
10:15 PM 64.4 °F - 55.4 °F 73% 29.52 in 10.0 mi NNE 21.9 mph 29.9 mph N/A   Scattered Clouds
10:35 PM 64.4 °F - 55.4 °F 73% 29.50 in 10.0 mi NE 24.2 mph 32.2 mph N/A   Scattered Clouds
11:15 PM 59.0 °F - 57.2 °F 94% 29.59 in 10.0 mi NNE 11.5 mph - N/A   Mostly Cloudy
11:35 PM 57.2 °F - 57.2 °F 100% 29.54 in 10.0 mi ENE 9.2 mph - N/A   Overcast
11:55 PM 55.4 °F - 55.4 °F 100% 29.53 in 10.0 mi NNE 10.4 mph - N/A Rain Light Rain